Tracking 30744 objects as of 24-Jun-2025
HD Live streaming from Space Station
objects crossing your sky now

IRIDIUM 82

Track IRIDIUM 82 now!
10-day predictions
IRIDIUM 82 is classified as:


NORAD ID: 25467
Int'l Code: 1998-051A
Perigee: 419.8 km
Apogee: 530.8 km
Inclination: 86.4 °
Period: 94.0 minutes
Semi major axis: 6846 km
RCS: 4.1187 m2 (large)
Launch date: September 8, 1998
Source: United States (US)
Launch site: AIR FORCE WESTERN TEST RANGE (AFWTR)
Your satellite tracking list
Your tracking list is empty




NASA's NSSDC Master Catalog

Two Line Element Set (TLE):
1 25467U 98051A   25174.23085447  .00014158  00000-0  40414-3 0  9994
2 25467  86.3668 106.7663 0081097 273.6847  85.5132 15.32573013424884
Source of the keplerian elements: AFSPC